Weather History for KPAM - February, 2013

Change the Weather History Date:

Friday, February 8, 2013

  Actual Average Record
Temperature  
Mean Temperature 60 °F -  
Max Temperature 66 °F 62 °F 73 °F (1999)
Min Temperature 53 °F 45 °F 32 °F (2004)
Degree Days  
Heating Degree Days 6    
Growing Degree Days 10 (Base 50)    
Moisture  
Dew Point 58 °F    
Average Humidity 98    
Maximum Humidity 100    
Minimum Humidity 88    
Precipitation  
Precipitation 0.00 in - - ()
Sea Level Pressure  
Sea Level Pressure 30.03 in    
Wind  
Wind Speed 3 mph (NNE)    
Max Wind Speed 12 mph    
Max Gust Speed -    
Visibility 7 miles    
Events Fog    
Averages and records for this station are not official NWS values.
T = Trace of Precipitation, MM = Missing Value Source: NWS Daily Summary

Daily Weather History Graph

Daily Weather History Graph

Search for Another Location

Airport or City:

Trip Planner

Search our weather history database for the weather conditions in past years. The results will help you decide how hot, cold, wet, or windy it might be!

Date:

Astronomy

Feb. 08, 2013 Rise Set
Actual Time 6:27 AM CST 5:25 PM CST
Civil Twilight 6:03 AM CST 5:50 PM CST
Nautical Twilight 5:34 AM CST 6:18 PM CST
Astronomical Twilight 5:06 AM CST 6:46 PM CST
Moon 4:52 AM CST (2/8) 4:00 PM CST (2/8)
Length of Visible Light 11h 47m
Length of Day
10h 57m
Waning Crescent, 3% of the Moon is Illuminated
Feb 8
Waning Crescent
Feb 10
New
Feb 17
First Quarter
Feb 25
Full
Mar 4
Last Quarter

Hourly Weather History & Observations

Time (CST) Temp. Dew Point Humidity Pressure Visibility Wind Dir Wind Speed Gust Speed Precip Events Conditions
12:03 AM 59.0 °F 59.0 °F 100% 29.94 in 10.0 mi ENE 3.5 mph - N/A   Overcast
12:08 AM 59.0 °F 59.0 °F 100% 29.94 in 10.0 mi ENE 3.5 mph - N/A   Overcast
12:17 AM 59.0 °F 59.0 °F 100% 29.94 in 10.0 mi NE 3.5 mph - N/A   Overcast
12:58 AM 58.6 °F 58.6 °F 100% 29.96 in 10.0 mi East 3.5 mph - N/A   Overcast
1:27 AM 57.2 °F 57.2 °F 100% 29.95 in 10.0 mi NE 2.3 mph - N/A   Overcast
1:43 AM 57.2 °F 57.2 °F 100% 29.95 in 10.0 mi NNE 1.2 mph - N/A   Mostly Cloudy
1:48 AM 57.2 °F 57.2 °F 100% 29.95 in 10.0 mi Calm Calm - N/A   Scattered Clouds
1:58 AM 56.8 °F 56.8 °F 100% 29.96 in 10.0 mi Calm Calm - N/A   Partly Cloudy
2:03 AM 57.2 °F 57.2 °F 100% 29.95 in 3.0 mi Calm Calm - N/A   Clear
2:04 AM 57.2 °F 57.2 °F 100% 29.95 in 3.0 mi Calm Calm - N/A   Partly Cloudy
2:09 AM 55.4 °F 55.4 °F 100% 29.95 in 2.5 mi Calm Calm - N/A   Partly Cloudy
2:14 AM 55.4 °F 55.4 °F 100% 29.95 in 3.0 mi Calm Calm - N/A   Partly Cloudy
2:19 AM 55.4 °F 55.4 °F 100% 29.95 in 1.8 mi Calm Calm - N/A   Scattered Clouds
2:24 AM 55.4 °F 55.4 °F 100% 29.95 in 2.0 mi NE 1.2 mph - N/A   Mostly Cloudy
2:29 AM 55.4 °F 55.4 °F 100% 29.95 in 4.0 mi NE 1.2 mph - N/A   Mostly Cloudy
2:34 AM 55.4 °F 55.4 °F 100% 29.95 in 7.0 mi Calm Calm - N/A   Mostly Cloudy
2:44 AM 55.4 °F 55.4 °F 100% 29.95 in 7.0 mi NE 2.3 mph - N/A   Overcast
2:49 AM 55.4 °F 55.4 °F 100% 29.95 in 1.2 mi NE 2.3 mph - N/A   Overcast
2:54 AM 55.4 °F 55.4 °F 100% 29.96 in 0.5 mi NNE 2.3 mph - N/A Fog Fog
2:58 AM 56.1 °F 56.1 °F 100% 29.97 in 0.2 mi NE 3.5 mph - N/A Fog Fog
3:15 AM 55.4 °F 55.4 °F 100% 29.95 in 0.2 mi ENE 3.5 mph - N/A Fog Fog
3:23 AM 55.4 °F 55.4 °F 100% 29.95 in 0.5 mi East 2.3 mph - N/A Fog Fog
3:27 AM 55.4 °F 55.4 °F 100% 29.96 in 0.2 mi ENE 1.2 mph - N/A Fog Fog
3:55 AM 53.6 °F 53.6 °F 100% 29.96 in 0.2 mi NE 2.3 mph - N/A Fog Fog
3:58 AM 54.3 °F 54.3 °F 100% 29.97 in 0.2 mi NNE 2.3 mph - N/A Fog Fog
4:58 AM 54.3 °F 54.1 °F 99% 29.99 in 0.2 mi North 1.2 mph - N/A Fog Fog
5:23 AM 53.6 °F 53.6 °F 100% 29.99 in 0.2 mi NNE 1.2 mph - N/A Fog Fog
5:58 AM 53.6 °F 53.6 °F 100% 30.01 in 0.2 mi ENE 1.2 mph - N/A Fog Fog
6:13 AM 53.6 °F 53.6 °F 100% 30.01 in 0.5 mi North 2.3 mph - N/A Fog Fog
6:23 AM 53.6 °F 53.6 °F 100% 30.02 in 0.2 mi Variable 1.2 mph - N/A Fog Fog
6:58 AM 54.1 °F 54.1 °F 100% 30.04 in 0.5 mi Calm Calm - N/A Fog Fog
7:03 AM 53.6 °F 53.6 °F 100% 30.03 in 7.0 mi Calm Calm - N/A   Overcast
7:12 AM 53.6 °F 53.6 °F 100% 30.03 in 1.5 mi Calm Calm - N/A   Overcast
7:18 AM 55.4 °F 55.4 °F 100% 30.04 in 2.0 mi ENE 1.2 mph - N/A   Overcast
7:23 AM 55.4 °F 55.4 °F 100% 30.04 in 2.0 mi ENE 1.2 mph - N/A   Overcast
7:28 AM 55.4 °F 55.4 °F 100% 30.04 in 2.0 mi NNE 3.5 mph - N/A   Overcast
7:38 AM 55.4 °F 55.4 °F 100% 30.04 in 3.0 mi ENE 3.5 mph - N/A   Overcast
7:48 AM 55.4 °F 55.4 °F 100% 30.04 in 10.0 mi ENE 2.3 mph - N/A   Overcast
7:58 AM 55.8 °F 55.8 °F 100% 30.06 in 7.0 mi NE 2.3 mph - N/A   Overcast
8:33 AM 57.2 °F 57.2 °F 100% 30.05 in 10.0 mi ENE 2.3 mph - N/A   Overcast
8:40 AM 57.2 °F 57.2 °F 100% 30.04 in 10.0 mi Variable 2.3 mph - N/A   Overcast
8:58 AM 57.9 °F 57.9 °F 100% 30.07 in 10.0 mi Variable 1.2 mph - N/A   Overcast
9:58 AM 62.2 °F 62.1 °F 99% 30.08 in 10.0 mi North 1.2 mph - N/A   Scattered Clouds
10:03 AM 62.6 °F 60.8 °F 94% 30.07 in 10.0 mi Calm Calm - N/A   Mostly Cloudy
10:08 AM 62.6 °F 60.8 °F 94% 30.07 in 10.0 mi Variable 4.6 mph - N/A   Light Drizzle
10:33 AM 64.4 °F 60.8 °F 88% 30.07 in 10.0 mi WNW 5.8 mph - N/A   Light Drizzle
10:46 AM 64.4 °F 60.8 °F 88% 30.07 in 10.0 mi West 5.8 mph - N/A   Mostly Cloudy
10:58 AM 64.9 °F 61.9 °F 90% 30.08 in 10.0 mi West 6.9 mph - 0.00 in   Scattered Clouds
11:03 AM 66.2 °F 62.6 °F 88% 30.06 in 10.0 mi West 8.1 mph - N/A   Light Drizzle
11:17 AM 66.2 °F 62.6 °F 88% 30.06 in 10.0 mi West 8.1 mph - N/A   Scattered Clouds
11:18 AM 66.2 °F 62.6 °F 88% 30.06 in 10.0 mi West 8.1 mph - N/A   Light Drizzle
11:59 AM 66.2 °F 62.6 °F 88% 30.06 in 10.0 mi WSW 11.5 mph - N/A   Scattered Clouds
12:56 PM 66.2 °F 62.6 °F 88% 30.05 in 10.0 mi WSW 10.4 mph - N/A   Mostly Cloudy
1:33 PM 66.2 °F 62.6 °F 88% 30.04 in 10.0 mi WSW 8.1 mph - N/A   Light Drizzle
1:55 PM 66.2 °F 62.6 °F 88% 30.04 in 10.0 mi WSW 8.1 mph - N/A   Mostly Cloudy
2:00 PM 66.2 °F 62.6 °F 88% 30.03 in 10.0 mi WSW 8.1 mph - N/A   Light Drizzle
2:55 PM 66.2 °F 62.6 °F 88% 30.03 in 10.0 mi West 8.1 mph - N/A   Scattered Clouds
3:56 PM 66.2 °F 64.4 °F 94% 30.05 in 10.0 mi WNW 9.2 mph - N/A   Mostly Cloudy
4:56 PM 64.4 °F 62.6 °F 94% 30.05 in 10.0 mi WNW 11.5 mph - N/A   Scattered Clouds
5:58 PM 62.4 °F 62.1 °F 99% 30.06 in 10.0 mi WNW 5.8 mph - 0.00 in   Clear
6:58 PM 59.7 °F 59.7 °F 100% 30.08 in 10.0 mi NNW 3.5 mph - N/A   Clear
7:58 PM 58.6 °F 58.6 °F 100% 30.09 in 10.0 mi NW 2.3 mph - N/A   Clear
8:58 PM 58.6 °F 58.6 °F 100% 30.12 in 10.0 mi North 4.6 mph - N/A   Clear
9:58 PM 58.6 °F 58.6 °F 100% 30.13 in 10.0 mi North 5.8 mph - N/A   Clear
10:43 PM 59.0 °F 59.0 °F 100% 30.13 in 10.0 mi North 8.1 mph - N/A   Mostly Cloudy
10:48 PM 59.0 °F 59.0 °F 100% 30.13 in 10.0 mi NNE 8.1 mph - N/A   Mostly Cloudy
10:53 PM 59.0 °F 59.0 °F 100% 30.13 in 10.0 mi NNE 9.2 mph - N/A   Mostly Cloudy
10:58 PM 58.1 °F 58.1 °F 100% 30.15 in 10.0 mi NNE 8.1 mph - N/A   Mostly Cloudy
11:28 PM 57.2 °F 57.2 °F 100% 30.14 in 10.0 mi NNE 5.8 mph - N/A   Overcast
11:33 PM 57.2 °F 57.2 °F 100% 30.14 in 10.0 mi NNE 5.8 mph - N/A   Overcast
11:55 PM 57.2 °F 57.2 °F 100% 30.14 in 10.0 mi NNE 8.1 mph - N/A   Mostly Cloudy
11:59 PM 57.2 °F 57.2 °F 100% 30.14 in 10.0 mi NNE 6.9 mph - N/A   Mostly Cloudy